EW7099 Weather Reports


time (UTC)temp
C
wind
direction
speed
KPH
gust
KPH
rain 1hr
cm
rain 24hr
cm
rain mn
cm
humidity
%
barometer
mb
20260503211529 33 190 16.1 30.6 0.00 0.00 0.00 51 1008.1
20260503210025 33 182 16.1 29.0 0.00 0.00 0.00 56 1008.3
20260503204526 33 175 12.9 25.7 0.00 0.00 0.00 58 1008.3
20260503203024 33 157 14.5 32.2 0.00 0.00 0.00 58 1008.6
20260503201529 33 192 11.3 24.1 0.00 0.00 0.00 56 1008.7
20260503200029 33 188 19.3 30.6 0.00 0.00 0.00 57 1009.0
20260503194527 33 161 16.1 25.7 0.00 0.00 0.00 57 1009.1
20260503193019 33 360 9.7 24.1 0.00 0.00 0.00 57 1009.2
20260503191521 33 177 16.1 29.0 0.00 0.00 0.00 55 1009.3
20260503190021 34 182 19.3 33.8 0.00 0.00 0.00 54 1009.6
20260503184522 34 144 12.9 25.7 0.00 0.00 0.00 51 1009.8
20260503183023 34 229 14.5 22.5 0.00 0.00 0.00 53 1010.1
20260503181525 34 128 11.3 22.5 0.00 0.00 0.00 53 1010.2
20260503180009 33 150 12.9 22.5 0.00 0.00 0.00 52 1010.4
20260503174508 33 360 12.9 24.1 0.00 0.00 0.00 52 1010.6
20260503173031 33 150 11.3 24.1 0.00 0.00 0.00 51 1010.8
20260503171509 34 186 12.9 24.1 0.00 0.00 0.00 52 1011.0
20260503081522 26 288 0.0 0.0 0.00 0.00 0.00 85 1009.2
20260503071556 26 91 0.0 0.0 0.00 0.00 0.00 85 1010.2
20260503054535 27 318 0.0 0.0 0.00 0.00 0.00 81 1010.7
20260503053040 27 318 0.0 0.0 0.00 0.00 0.00 81 1010.6
20260503051534 27 306 0.0 0.0 0.00 0.00 0.00 82 1010.8
20260503050035 27 305 0.0 0.0 0.00 0.00 0.00 82 1010.8
20260503044604 27 305 0.0 0.0 0.00 0.00 0.00 83 1010.9
20260503043030 27 188 0.0 0.0 0.00 0.00 0.00 83 1010.7
20260503041530 27 188 0.0 0.0 0.00 0.00 0.00 83 1010.8
20260503040030 27 188 0.0 0.0 0.00 0.00 0.00 83 1010.8
20260503034529 27 188 0.0 0.0 0.00 0.00 0.00 83 1010.8
20260503033022 27 190 0.0 0.0 0.00 0.00 0.00 83 1010.3
20260503031521 27 190 0.0 0.0 0.00 0.00 0.00 83 1010.0
20260503030018 27 169 0.0 6.4 0.00 0.00 0.00 83 1009.8
20260503024513 27 157 4.8 8.0 0.00 0.00 0.00 82 1009.4
20260503023011 27 155 3.2 9.7 0.00 0.00 0.00 81 1009.2
20260503021515 28 158 1.6 8.0 0.00 0.00 0.00 80 1009.0
20260503020006 28 166 0.0 6.4 0.00 0.00 0.00 80 1008.9
20260503014536 28 182 3.2 4.8 0.00 0.00 0.00 79 1008.6
20260503013032 28 186 0.0 6.4 0.00 0.00 0.00 79 1008.4
20260503011530 28 188 1.6 8.0 0.00 0.00 0.00 79 1008.2
20260503010027 28 164 1.6 9.7 0.00 0.00 0.00 78 1008.3
20260503004523 28 186 3.2 11.3 0.00 0.00 0.00 78 1008.0
20260503003030 28 160 6.4 9.7 0.00 0.00 0.00 76 1008.0
20260503001519 29 190 3.2 11.3 0.00 0.00 0.00 75 1007.8
20260503000027 29 161 3.2 9.7 0.00 0.00 0.00 74 1007.5
20260502234530 29 198 8.0 12.9 0.00 0.00 0.00 74 1007.3
20260502233017 29 175 9.7 17.7 0.00 0.00 0.00 74 1007.2
20260502231515 30 207 11.3 22.5 0.00 0.00 0.00 73 1007.1
20260502230014 30 189 11.3 29.0 0.00 0.00 0.00 72 1007.0
20260502224513 30 171 16.1 29.0 0.00 0.00 0.00 72 1006.9
20260502223032 30 360 14.5 24.1 0.00 0.00 0.00 69 1006.9
20260502221511 31 167 12.9 25.7 0.00 0.00 0.00 68 1007.0
20260502220009 31 190 16.1 25.7 0.00 0.00 0.00 65 1006.9
20260502214508 32 360 14.5 35.4 0.00 0.00 0.00 63 1006.9
20260502213006 32 206 19.3 33.8 0.00 0.00 0.00 61 1007.0